Weather History for Pine Bluff, AR

Change the Weather History Date:

Friday, July 12, 2013

  Actual Average Record
Temperature  
Mean Temperature 81 °F 82 °F  
Max Temperature 91 °F 92 °F 108 °F (1901)
Min Temperature 70 °F 72 °F 62 °F (1894)
Degree Days  
Heating Degree Days 0 0  
Month to date heating degree days 0 0  
Since 1 June heating degree days 0 0  
Since 1 July heating degree days 0 0  
Cooling Degree Days 16 17  
Month to date cooling degree days 172 203  
Year to date cooling degree days 860 932  
Since 1 June cooling degree days 593 625  
Growing Degree Days 30 (Base 50)    
Moisture  
Dew Point 61 °F    
Average Humidity 60    
Maximum Humidity 87    
Minimum Humidity 32    
Precipitation  
Precipitation 0.00 in 0.14 in 2.11 in (1941)
Month to date precipitation T 1.50  
Year to date precipitation 29.42 28.28  
Snow  
Snow 0.00 in 0.00 in - ()
Month to date snowfall 0.0 0.0  
Since 1 June snowfall 0.0 0.0  
Since 1 July snowfall 0.0 0.0  
Snow Depth 0.00 in    
Sea Level Pressure  
Sea Level Pressure 29.99 in    
Wind  
Wind Speed 8 mph (NNE)    
Max Wind Speed 15 mph    
Max Gust Speed 20 mph    
Visibility 10 miles    
Events      
T = Trace of Precipitation, MM = Missing Value Source: NWS Daily Summary

Daily Weather History Graph

Daily Weather History Graph

Search for Another Location

Airport:

Trip Planner

Search our weather history database for the weather conditions in past years. The results will help you decide how hot, cold, wet, or windy it might be!

Date:

Astronomy

Jul. 12, 2013 Rise Set
Actual Time 6:05 AM CDT 8:21 PM CDT
Civil Twilight 5:36 AM CDT 8:49 PM CDT
Nautical Twilight 5:01 AM CDT 9:24 PM CDT
Astronomical Twilight 4:23 AM CDT 10:02 PM CDT
Moon 10:09 AM CDT (7/12) 10:46 PM CDT (7/12)
Length of Visible Light 15h 13m
Length of Day
14h 15m
Waxing Crescent, 17% of the Moon is Illuminated
Jul 12
Waxing Crescent
Jul 15
First Quarter
Jul 22
Full
Jul 29
Last Quarter
Aug 6
New

Hourly Weather History & Observations

Time (CDT) Temp. Heat Index Dew Point Humidity Pressure Visibility Wind Dir Wind Speed Gust Speed Precip Events Conditions
12:53 AM 75.9 °F - 71.1 °F 85% 29.95 in 10.0 mi NNW 3.5 mph - N/A   Clear
1:53 AM 78.1 °F - 66.9 °F 68% 29.94 in 10.0 mi NNE 5.8 mph - N/A   Clear
2:53 AM 75.0 °F - 66.0 °F 73% 29.96 in 10.0 mi NE 4.6 mph - N/A   Clear
3:53 AM 73.9 °F - 64.9 °F 73% 29.97 in 10.0 mi NE 6.9 mph - N/A   Clear
4:53 AM 73.0 °F - 64.0 °F 73% 29.98 in 10.0 mi NNE 6.9 mph - N/A   Clear
5:53 AM 71.1 °F - 64.0 °F 78% 30.00 in 10.0 mi NE 3.5 mph - N/A   Clear
6:53 AM 72.0 °F - 63.0 °F 73% 30.01 in 10.0 mi NNE 6.9 mph - N/A   Clear
7:53 AM 73.9 °F - 63.0 °F 68% 30.03 in 10.0 mi NE 6.9 mph - N/A   Clear
8:53 AM 78.1 °F - 63.0 °F 60% 30.04 in 10.0 mi NNE 9.2 mph - N/A   Clear
9:53 AM 80.1 °F 81.2 °F 62.1 °F 54% 30.03 in 10.0 mi NE 9.2 mph - N/A   Clear
10:53 AM 82.9 °F 83.3 °F 61.0 °F 47% 30.03 in 10.0 mi North 10.4 mph - N/A   Scattered Clouds
11:53 AM 84.9 °F 85.0 °F 61.0 °F 44% 30.02 in 10.0 mi NNE 13.8 mph 17.3 mph N/A   Clear
12:53 PM 86.0 °F 85.7 °F 60.1 °F 41% 30.01 in 10.0 mi NNE 11.5 mph - N/A   Clear
1:53 PM 88.0 °F 86.5 °F 55.9 °F 34% 30.00 in 10.0 mi North 10.4 mph - N/A   Clear
2:53 PM 88.0 °F 86.7 °F 57.0 °F 35% 29.98 in 10.0 mi NNW 9.2 mph 18.4 mph N/A   Clear
3:53 PM 90.0 °F 88.6 °F 57.0 °F 33% 29.97 in 10.0 mi NE 10.4 mph - N/A   Clear
4:53 PM 89.1 °F 87.7 °F 57.0 °F 34% 29.96 in 10.0 mi North 9.2 mph - N/A   Clear
5:53 PM 89.1 °F 87.3 °F 55.9 °F 32% 29.96 in 10.0 mi NNE 9.2 mph - N/A   Clear
6:53 PM 87.1 °F 85.7 °F 55.9 °F 35% 29.95 in 10.0 mi NE 11.5 mph - N/A   Clear
7:53 PM 82.9 °F 82.6 °F 57.9 °F 42% 29.96 in 10.0 mi NNE 5.8 mph - N/A   Clear
8:53 PM 79.0 °F - 61.0 °F 54% 29.96 in 10.0 mi NE 5.8 mph - N/A   Clear
9:53 PM 77.0 °F - 60.1 °F 56% 29.98 in 10.0 mi NNE 6.9 mph - N/A   Clear
10:53 PM 75.9 °F - 59.0 °F 56% 29.98 in 10.0 mi NE 4.6 mph - N/A   Clear
11:53 PM 71.1 °F - 60.1 °F 68% 29.99 in 10.0 mi North 5.8 mph - N/A   Clear